Location: Medlow Airstrip Trail, Medlow Bath NSW 2780, Australia
(33.6682°S, 150.3233°E)
Time: 15:18:21
(UTC+11:00)

Explorer 11/Cluster Stage 4 - Pass Details

Date: 24 September 2019
Orbit: 467 x 1259 km, 28.8° (Epoch: 18 October)

Event Time Altitude Azimuth Distance (km) Brightness Sun altitude
Rises 10:59:39 0° 277° (W) 3,189 9.6 54.5°
Reaches altitude 10° 11:01:55 10° 281° (W) 2,379 9.1 54.7°
Maximum altitude 11:07:33 55° 358° (N) 1,115 9.6 55.1°
Drops below altitude 10° 11:14:32 10° 73° (ENE) 2,937 9.9 55.5°
Sets 11:17:37 0° 77° (ENE) 3,998 10.4 55.7°
